Location: Meadowbank Aerodrome
(65.0250°N, 96.0705°W)
Time: 10:54:01
(UTC-06:00)

Cosmos 2221 - Visible Passes

Search period start: 26 February 2017 00:00
Search period end: 08 March 2017 00:00
Orbit: 594 x 617 km, 82.5° (Epoch: 25 February)

Date Brightness Start Highest point End Pass type
(mag) Time Alt. Az. Time Alt. Az. Time Alt. Az.
26 Feb 4.7 01:28:30 24° NNE 01:28:30 24° NNE 01:30:22 10° NNE visible
26 Feb 4.1 03:05:22 29° NNW 03:05:22 29° NNW 03:08:00 10° N visible
26 Feb 4.6 04:42:14 14° NW 04:42:48 14° NW 04:45:11 10° N visible
27 Feb 5.3 00:04:35 13° NE 00:04:35 13° NE 00:05:14 10° NE visible
27 Feb 4.5 01:41:26 28° NNE 01:41:26 28° NNE 01:43:32 10° NNE visible
27 Feb 4.1 03:18:18 26° NNW 03:18:18 26° NNW 03:21:04 10° N visible
27 Feb 4.8 04:55:10 11° NW 04:56:18 12° NNW 04:58:05 10° N visible
28 Feb 5.1 00:17:30 16° NE 00:17:30 16° NE 00:18:38 10° NNE visible
28 Feb 4.3 01:54:22 31° NNE 01:54:22 31° NNE 01:56:41 10° NNE visible
28 Feb 4.2 03:31:14 23° NW 03:31:14 23° NW 03:34:08 10° N visible
28 Feb 4.9 05:08:52 10° NW 05:09:50 11° NNW 05:10:47 10° N visible
01 Mar 4.9 00:30:25 19° NE 00:30:25 19° NE 00:31:56 10° NNE visible
01 Mar 4.1 02:07:17 32° N 02:07:17 32° N 02:09:48 10° NNE visible
01 Mar 4.4 03:44:09 19° NW 03:44:09 19° NW 03:47:09 10° N visible
02 Mar 4.6 00:43:20 23° NE 00:43:20 23° NE 00:45:11 10° NNE visible
02 Mar 4.0 02:20:12 32° NNW 02:20:12 32° NNW 02:22:54 10° NNE visible
02 Mar 4.6 03:57:03 16° NW 03:57:24 16° NW 04:00:09 10° N visible
02 Mar 5.2 23:19:23 11° NE 23:19:23 11° NE 23:19:48 10° NE visible
03 Mar 4.4 00:56:15 27° NNE 00:56:15 27° NNE 00:58:22 10° NNE visible
03 Mar 4.1 02:33:06 30° NNW 02:33:06 30° NNW 02:35:59 10° N visible
03 Mar 4.7 04:09:58 13° NW 04:10:52 14° NNW 04:13:07 10° N visible
03 Mar 5.0 23:32:17 14° NE 23:32:17 14° NE 23:33:19 10° NE visible
04 Mar 4.2 01:09:08 32° NNE 01:09:08 32° NNE 01:11:32 10° NNE visible
04 Mar 4.2 02:46:00 26° NW 02:46:00 26° NW 02:49:02 10° N visible
04 Mar 4.9 04:22:52 10° NW 04:24:23 12° NNW 04:26:00 10° N visible
04 Mar 4.8 23:45:10 18° NE 23:45:10 18° NE 23:46:41 10° NNE visible
05 Mar 4.0 01:22:02 35° N 01:22:02 35° N 01:24:40 10° NNE visible
05 Mar 4.3 02:58:54 22° NW 02:58:54 22° NW 03:02:05 10° N visible
05 Mar 5.1 04:37:16 10° NNW 04:37:56 10° NNW 04:38:35 10° NNW visible
05 Mar 4.5 23:58:04 22° NE 23:58:04 22° NE 23:59:57 10° NNE visible
06 Mar 3.9 01:34:55 36° N 01:34:55 36° N 01:37:46 10° NNE visible
06 Mar 4.5 03:11:47 18° NW 03:12:01 18° NW 03:15:06 10° N visible
06 Mar 5.2 22:34:05 10° NE 22:34:05 10° NE 22:34:11 10° NE visible
07 Mar 4.3 00:10:56 28° NE 00:10:56 28° NE 00:13:10 10° NNE visible
07 Mar 3.9 01:47:48 35° NNW 01:47:48 35° NNW 01:50:52 10° NNE visible
07 Mar 4.7 03:24:39 15° NW 03:25:28 15° NW 03:28:06 10° N visible
07 Mar 4.9 22:46:57 13° NE 22:46:57 13° NE 22:47:55 10° NE visible
